Location: Newark
(40.3500°N, 15.2333°E)
Time: 04:37:36
(UTC+00:00)

Altair - Pass Details

Date: 19 January 2020
Orbit: 1502 x 1682 km, 47.2° (Epoch: 19 February)

Event Time Altitude Azimuth Distance (km) Brightness Sun altitude
Rises 06:13:04 0° 174° (S) 4,858 10.6 -1.8°
Reaches altitude 10° 06:18:03 10° 153° (SSE) 3,903 10.6 -0.9°
Maximum altitude 06:23:07 15° 122° (ESE) 3,522 11.3 0.0°
Drops below altitude 10° 06:28:13 10° 91° (E) 3,943 10.9 0.8°
Sets 06:33:14 0° 71° (ENE) 4,936 10.9 1.7°
